Location: Cossonay
(46.5833°N, 6.4167°E)
Time: 22:52:24
(UTC+00:00)

USA 215 - Pass Details

Date: 07 June 2020
Orbit: 1098 x 1110 km, 123.0° (Epoch: 10 July)

Event Time Altitude Azimuth Distance (km) Brightness Sun altitude
Exits shadow 00:28:06 13° 141° (SE) 2,762 5.0 -19.5°
Maximum altitude 00:34:04 65° 222° (SW) 1,207 3.2 -19.3°
Drops below altitude 10° 00:40:34 10° 304° (NW) 2,966 5.7 -19.0°
Sets 00:43:06 0° 307° (NW) 3,925 6.4 -18.9°
